When you browse on this site, cookies collect data to enhance your experience and personalize the content and advertising you see.
Visit our Privacy Policy to learn more. By continuing to use the site, you agree to this use of cookies and data.
  • In France
  • List of Countries
  • For 7 days
  • Water Temperature
  • Satellite Maps
  • Weather Map
  • Weather Widgets
  • user-avatar
    Login

    Hourly Weather Farim

    Today, 23 May, Thursday

    Time Temperature Precipitation Wind Pressure Humidity
    00:00 +31°C° 0 mm 1 mps 756 mmHg 32%
    01:00 +30°C° 0 mm 1 mps 756 mmHg 33%
    02:00 +30°C° 0 mm 1 mps 756 mmHg 33%
    03:00 +29°C° 0 mm 1 mps 756 mmHg 34%
    04:00 +28°C° 0 mm 1 mps 756 mmHg 35%
    05:00 +26°C° 0 mm 0 mps 756 mmHg 36%
    06:00 +30°C° 0 mm 1 mps 756 mmHg 32%
    07:00 +32°C° 0 mm 1 mps 757 mmHg 28%
    08:00 +34°C° 0 mm 1 mps 757 mmHg 24%
    09:00 +37°C° 0 mm 2 mps 757 mmHg 20%
    10:00 +40°C° 0 mm 2 mps 756 mmHg 16%
    11:00 +42°C° 0 mm 2 mps 756 mmHg 13%
    12:00 +45°C° 0 mm 2 mps 756 mmHg 12%
    13:00 +46°C° 0 mm 2 mps 755 mmHg 11%
    14:00 +47°C° 0 mm 2 mps 754 mmHg 10%
    15:00 +47°C° 0 mm 2 mps 754 mmHg 10%
    16:00 +46°C° 0 mm 2 mps 753 mmHg 11%
    17:00 +46°C° 0 mm 2 mps 753 mmHg 11%
    18:00 +42°C° 0 mm 2 mps 754 mmHg 15%
    19:00 +39°C° 0 mm 2 mps 754 mmHg 19%
    20:00 +36°C° 0 mm 2 mps 755 mmHg 23%
    21:00 +35°C° 0 mm 2 mps 755 mmHg 28%
    22:00 +34°C° 0 mm 2 mps 756 mmHg 34%
    23:00 +31°C° 0 mm 2 mps 756 mmHg 39%

    Tomorrow, 24 May, Friday

    Time Temperature Precipitation Wind Pressure Humidity
    00:00 +31°C° 0 mm 2 mps 756 mmHg 40%
    01:00 +30°C° 0 mm 2 mps 756 mmHg 42%
    02:00 +29°C° 0 mm 1 mps 756 mmHg 43%
    03:00 +29°C° 0 mm 1 mps 756 mmHg 45%
    04:00 +28°C° 0 mm 1 mps 756 mmHg 48%
    05:00 +27°C° 0 mm 1 mps 756 mmHg 50%
    06:00 +29°C° 0 mm 1 mps 757 mmHg 44%
    07:00 +31°C° 0 mm 1 mps 757 mmHg 39%
    08:00 +33°C° 0 mm 1 mps 758 mmHg 33%
    09:00 +37°C° 0 mm 1 mps 757 mmHg 27%
    10:00 +41°C° 0 mm 1 mps 757 mmHg 21%
    11:00 +44°C° 0 mm 1 mps 757 mmHg 15%
    12:00 +45°C° 0 mm 1 mps 756 mmHg 13%
    13:00 +46°C° 0 mm 1 mps 755 mmHg 12%
    14:00 +48°C° 0 mm 2 mps 754 mmHg 11%
    15:00 +47°C° 0 mm 2 mps 754 mmHg 11%
    16:00 +46°C° 0 mm 2 mps 753 mmHg 12%
    17:00 +45°C° 0 mm 2 mps 753 mmHg 12%
    18:00 +42°C° 0 mm 3 mps 754 mmHg 21%
    19:00 +38°C° 0 mm 4 mps 755 mmHg 31%
    20:00 +34°C° 0 mm 4 mps 755 mmHg 40%
    21:00 +33°C° 0 mm 4 mps 756 mmHg 44%
    22:00 +31°C° 0 mm 3 mps 757 mmHg 47%
    23:00 +30°C° 0 mm 3 mps 757 mmHg 50%

    Day after tomorrow, 25 May, Saturday

    Time Temperature Precipitation Wind Pressure Humidity
    00:00 +29°C° 0 mm 2 mps 757 mmHg 53%
    01:00 +29°C° 0 mm 2 mps 757 mmHg 56%
    02:00 +28°C° 0 mm 2 mps 757 mmHg 59%
    03:00 +27°C° 0 mm 1 mps 757 mmHg 62%
    04:00 +27°C° 0 mm 1 mps 757 mmHg 64%
    05:00 +26°C° 0 mm 1 mps 757 mmHg 67%
    06:00 +28°C° 0 mm 1 mps 758 mmHg 60%
    07:00 +29°C° 0 mm 1 mps 758 mmHg 53%
    08:00 +31°C° 0 mm 1 mps 758 mmHg 46%
    09:00 +34°C° 0 mm 1 mps 758 mmHg 38%
    10:00 +37°C° 0 mm 1 mps 758 mmHg 29%
    11:00 +42°C° 0 mm 1 mps 758 mmHg 21%
    12:00 +43°C° 0 mm 1 mps 757 mmHg 19%
    13:00 +44°C° 0 mm 1 mps 756 mmHg 17%
    14:00 +45°C° 0 mm 1 mps 755 mmHg 15%
    15:00 +45°C° 0 mm 2 mps 755 mmHg 17%
    16:00 +44°C° 0 mm 3 mps 754 mmHg 18%
    17:00 +43°C° 0 mm 3 mps 754 mmHg 19%
    18:00 +40°C° 0 mm 4 mps 755 mmHg 27%
    19:00 +36°C° 0 mm 4 mps 756 mmHg 36%
    20:00 +33°C° 0 mm 4 mps 756 mmHg 45%
    21:00 +32°C° 0 mm 4 mps 757 mmHg 47%
    22:00 +30°C° 0 mm 3 mps 758 mmHg 50%
    23:00 +30°C° 0 mm 2 mps 758 mmHg 52%

    26 May, Sunday

    Time Temperature Precipitation Wind Pressure Humidity
    00:00 +29°C° 0 mm 2 mps 758 mmHg 55%
    01:00 +28°C° 0 mm 2 mps 757 mmHg 57%
    02:00 +28°C° 0 mm 1 mps 757 mmHg 60%
    03:00 +27°C° 0 mm 1 mps 757 mmHg 62%
    04:00 +27°C° 0 mm 1 mps 757 mmHg 65%
    05:00 +26°C° 0 mm 1 mps 757 mmHg 67%
    06:00 +28°C° 0 mm 1 mps 758 mmHg 59%
    07:00 +30°C° 0 mm 1 mps 758 mmHg 51%
    08:00 +32°C° 0 mm 1 mps 759 mmHg 43%
    09:00 +35°C° 0 mm 1 mps 759 mmHg 37%
    10:00 +39°C° 0 mm 1 mps 759 mmHg 30%
    11:00 +43°C° 0 mm 1 mps 758 mmHg 24%
    12:00 +43°C° 0 mm 1 mps 757 mmHg 22%
    13:00 +44°C° 0 mm 1 mps 757 mmHg 21%
    14:00 +45°C° 0 mm 1 mps 756 mmHg 20%
    15:00 +43°C° 0 mm 2 mps 755 mmHg 22%
    16:00 +42°C° 0 mm 2 mps 755 mmHg 25%
    17:00 +40°C° 0 mm 3 mps 755 mmHg 27%
    18:00 +38°C° 0 mm 3 mps 756 mmHg 33%
    19:00 +36°C° 0 mm 4 mps 756 mmHg 39%
    20:00 +34°C° 0 mm 4 mps 757 mmHg 45%
    21:00 +33°C° 0 mm 3 mps 757 mmHg 46%
    22:00 +31°C° 0 mm 3 mps 758 mmHg 48%
    23:00 +31°C° 0 mm 2 mps 758 mmHg 49%

    27 May, Monday

    Time Temperature Precipitation Wind Pressure Humidity
    00:00 +30°C° 0 mm 2 mps 758 mmHg 50%
    01:00 +29°C° 0 mm 1 mps 757 mmHg 50%
    02:00 +29°C° 0 mm 1 mps 757 mmHg 51%
    03:00 +28°C° 0 mm 1 mps 757 mmHg 52%
    04:00 +28°C° 0 mm 1 mps 757 mmHg 53%
    05:00 +28°C° 0 mm 1 mps 757 mmHg 55%
    06:00 +29°C° 0 mm 1 mps 758 mmHg 49%
    07:00 +31°C° 0 mm 1 mps 758 mmHg 43%
    08:00 +33°C° 0 mm 1 mps 758 mmHg 37%
    09:00 +36°C° 0 mm 1 mps 758 mmHg 33%
    10:00 +39°C° 0 mm 1 mps 758 mmHg 28%
    11:00 +42°C° 0 mm 1 mps 757 mmHg 24%
    12:00 +43°C° 0 mm 1 mps 757 mmHg 22%
    13:00 +44°C° 0 mm 1 mps 756 mmHg 20%
    14:00 +45°C° 0 mm 1 mps 755 mmHg 19%
    15:00 +44°C° 0 mm 1 mps 755 mmHg 20%
    16:00 +43°C° 0 mm 2 mps 755 mmHg 22%
    17:00 +41°C° 0 mm 2 mps 754 mmHg 23%
    18:00 +40°C° 0 mm 3 mps 755 mmHg 26%
    19:00 +38°C° 0 mm 4 mps 756 mmHg 30%
    20:00 +36°C° 0 mm 4 mps 756 mmHg 33%
    21:00 +35°C° 0 mm 4 mps 757 mmHg 33%
    22:00 +33°C° 0 mm 3 mps 757 mmHg 34%
    23:00 +31°C° 0 mm 2 mps 757 mmHg 34%

    28 May, Tuesday

    Time Temperature Precipitation Wind Pressure Humidity
    00:00 +30°C° 0 mm 2 mps 757 mmHg 37%
    01:00 +29°C° 0 mm 2 mps 757 mmHg 39%
    02:00 +28°C° 0 mm 1 mps 757 mmHg 42%
    03:00 +28°C° 0 mm 1 mps 757 mmHg 44%
    04:00 +27°C° 0 mm 1 mps 757 mmHg 46%
    05:00 +27°C° 0 mm 1 mps 757 mmHg 48%
    06:00 +29°C° 0 mm 1 mps 758 mmHg 43%
    07:00 +31°C° 0 mm 1 mps 758 mmHg 38%
    08:00 +33°C° 0 mm 1 mps 758 mmHg 33%
    09:00 +36°C° 0 mm 1 mps 758 mmHg 27%
    10:00 +40°C° 0 mm 2 mps 757 mmHg 21%
    11:00 +42°C° 0 mm 2 mps 757 mmHg 16%
    12:00 +43°C° 0 mm 2 mps 756 mmHg 15%
    13:00 +45°C° 0 mm 2 mps 755 mmHg 14%
    14:00 +46°C° 0 mm 2 mps 754 mmHg 13%
    15:00 +46°C° 0 mm 2 mps 754 mmHg 14%
    16:00 +45°C° 0 mm 3 mps 754 mmHg 14%
    17:00 +44°C° 0 mm 3 mps 754 mmHg 15%
    18:00 +42°C° 0 mm 3 mps 755 mmHg 18%
    19:00 +39°C° 0 mm 3 mps 755 mmHg 22%
    20:00 +36°C° 0 mm 3 mps 756 mmHg 25%
    21:00 +35°C° 0 mm 3 mps 756 mmHg 29%
    22:00 +34°C° 0 mm 2 mps 757 mmHg 33%
    23:00 +31°C° 0 mm 2 mps 757 mmHg 37%
    Show more